User: anonymous   Login
Location: Unspecified
(0.0000°N, 0.0000°E)
Time: 01:09:28
(UTC+00:00)
Language:

GALILEO-FM2 - Orbit

View from above orbital plane
View from above orbital plane
View from above satellite
View from above satellite

Ground track
Ground track

The orbit data is extracted from the following two-line orbital elements,

1 37847U 11060B   17294.33899094 -.00000042 +00000-0 +00000-0 0  9992
2 37847 055.9259 068.1828 0002480 303.9748 106.6039 01.70475939037243
Epoch (UTC): 21 October 2017 08:08:08
Eccentricity: 0.0002480
inclination: 55.9259°
perigee height: 23214 km
apogee height: 23229 km
right ascension of ascending node: 68.1828°
argument of perigee: 303.9748°
revolutions per day: 1.70475939
mean anomaly at epoch: 106.6039°
orbit number at epoch: 3724

The dashed part of the orbit path shows where the satellite is in the earth's shadow,  

DLR